THORAD AGENA D DEB, 4819

Orbit data source: Space-Track

THORAD AGENA D DEB, 4819 is space debris in SSO originally from a launch on Wed, 08 Apr 1970 UTC launched from the Air Force Western Test Range (AFWTR). Debris objects in space refer to the collection of defunct objects orbiting the Earth. Examples of debris include non-operational satellites, rocket bodies, and fragments generated from explosions, collisions, or faulty payload assembly.

Loading next visibility...
Identifier
4819, 1970-025EA
Orbit
SSO
Country
Flag of USUS
Related business
Manufacturer
Unknown
Mission
Spacecraft
Bus & Motor
Unknown
Mass
Unknown
Launch date (UTC)
1970-04-08 (56 years ago)
Launch vehicle
Unknown
Launch site
Air Force Western Test Range (AFWTR)
Object type
Payload
Rocket body
Debris
Shape & HBR
Unknown shape, 0.1 m
Radar Cross Section
Small (<0.1 m²)

Expand to show TLE details & history
Last TLE update: 16 hours ago

TLE from 16 hours ago
0 THORAD AGENA D DEB
1 04819U 70025EA  25292.19724014  .00017813  00000-0  61707-2 0  9997
2 04819 100.0922 266.1189 0030005 239.6363 120.1849 14.35443084809548
Epoch: 2025-10-19T04:44Z
TLE epoch observation values (Epoch: 2025-10-19T04:44:01.548Z)
Latitude
-0.00007°
Longitude
167.1951°
Altitude
787.321 km
Speed
7.454 km/s
True Right ascension
17h 44m 28s
True Declination
0° 00' 00"
Sunlit
Object was in daylight at epoch
Visualization orbit readout
Latitude
Unknown
Longitude
Unknown
Altitude
Unknown
Speed
Unknown
Apparent Right ascension
Unknown
Apparent Declination
Unknown
Sunlit
N/A
Visualization observer readout
Local Sidereal Time
15:35:34
Azimuth
Unknown
Elevation
Unknown
Doppler factor
Unknown
Orbital elements
Apogee altitude
792.254 km
Perigee altitude
749.354 km
Semi-major axis
7,148.941 km
Eccentricity
0.003
Inclination
100.0922°
RAAN
266.1189°
Arg. of periapsis
239.6363°
True anomaly
120.48155°
Mean anomaly
120.1849°
Eccentric anomaly
120.33328°
Mean motion
3.59071 °/min
Orbital period
100.26 mins
BSTAR
0.0061707
Loading maneuver chart data...
Computing Atmospheric mass density...

Documentation

Showing up to 5 results
|